Time,TemperatureF,DewpointF,PressureIn,WindDirection,WindDirectionDegrees,WindSpeedMPH,WindSpeedGustMPH,Humidity,HourlyPrecipIn,Conditions,Clouds,dailyrainin,SoftwareType,DateUTC
2013-03-17 00:00:00,54.9,42.1,30.11,West,275,1.0,1.0,62,0.00,,,0.00,Wunderground v.1.15,2013-03-17 07:00:00,
2013-03-17 00:05:00,54.7,42.3,30.11,SSW,195,0.0,1.0,63,0.00,,,0.00,Wunderground v.1.15,2013-03-17 07:05:00,
2013-03-17 00:10:00,54.5,42.2,30.11,East,82,0.0,2.0,63,0.00,,,0.00,Wunderground v.1.15,2013-03-17 07:10:00,
2013-03-17 00:15:00,54.4,42.5,30.11,SW,220,1.0,3.0,64,0.00,,,0.00,Wunderground v.1.15,2013-03-17 07:15:00,
2013-03-17 00:25:00,54.4,42.5,30.11,West,269,2.0,2.0,64,0.00,,,0.00,Wunderground v.1.15,2013-03-17 07:25:00,
2013-03-17 00:30:00,54.3,42.4,30.11,WNW,288,1.0,4.0,64,0.00,,,0.00,Wunderground v.1.15,2013-03-17 07:30:00,
2013-03-17 00:35:00,54.4,42.1,30.11,NW,319,2.0,4.0,63,0.00,,,0.00,Wunderground v.1.15,2013-03-17 07:35:00,
2013-03-17 00:45:00,54.3,42.0,30.11,NW,307,2.0,3.0,63,0.00,,,0.00,Wunderground v.1.15,2013-03-17 07:45:00,
2013-03-17 00:50:00,54.2,41.9,30.11,NW,304,2.0,3.0,63,0.00,,,0.00,Wunderground v.1.15,2013-03-17 07:50:00,
2013-03-17 00:55:00,54.2,41.9,30.11,NW,311,2.0,3.0,63,0.00,,,0.00,Wunderground v.1.15,2013-03-17 07:55:00,
2013-03-17 01:05:00,54.0,42.1,30.11,West,281,1.0,2.0,64,0.00,,,0.00,Wunderground v.1.15,2013-03-17 08:05:00,
2013-03-17 01:10:00,53.7,41.8,30.11,NW,318,0.0,0.0,64,0.00,,,0.00,Wunderground v.1.15,2013-03-17 08:10:00,
2013-03-17 01:15:00,53.4,41.9,30.11,NW,317,0.0,0.0,65,0.00,,,0.00,Wunderground v.1.15,2013-03-17 08:15:00,
2013-03-17 01:20:00,53.3,42.2,30.11,NW,315,1.0,1.0,66,0.00,,,0.00,Wunderground v.1.15,2013-03-17 08:20:00,
2013-03-17 01:30:00,53.4,42.3,30.12,NW,323,1.0,1.0,66,0.00,,,0.00,Wunderground v.1.15,2013-03-17 08:30:00,
2013-03-17 01:40:00,53.1,42.4,30.12,WNW,301,1.0,1.0,67,0.00,,,0.00,Wunderground v.1.15,2013-03-17 08:40:00,
2013-03-17 01:45:00,52.8,42.1,30.12,North,349,0.0,1.0,67,0.00,,,0.00,Wunderground v.1.15,2013-03-17 08:45:00,
2013-03-17 01:50:00,52.4,42.1,30.12,SE,126,0.0,0.0,68,0.00,,,0.00,Wunderground v.1.15,2013-03-17 08:50:00,
2013-03-17 01:55:00,52.1,42.2,30.13,NE,44,0.0,0.0,69,0.00,,,0.00,Wunderground v.1.15,2013-03-17 08:55:00,
2013-03-17 02:00:00,51.9,42.0,30.12,ENE,57,0.0,0.0,69,0.00,,,0.00,Wunderground v.1.15,2013-03-17 09:00:00,
2013-03-17 02:05:00,51.8,41.9,30.13,WNW,294,0.0,0.0,69,0.00,,,0.00,Wunderground v.1.15,2013-03-17 09:05:00,
2013-03-17 02:15:00,51.5,41.7,30.13,WNW,296,0.0,0.0,69,0.00,,,0.00,Wunderground v.1.15,2013-03-17 09:15:00,
2013-03-17 02:20:00,51.4,41.6,30.13,NW,307,0.0,0.0,69,0.00,,,0.00,Wunderground v.1.15,2013-03-17 09:20:00,
2013-03-17 02:25:00,51.4,41.6,30.12,North,355,1.0,1.0,69,0.00,,,0.00,Wunderground v.1.15,2013-03-17 09:25:00,
2013-03-17 02:35:00,51.5,40.9,30.13,WNW,298,0.0,1.0,67,0.00,,,0.00,Wunderground v.1.15,2013-03-17 09:35:00,
2013-03-17 02:40:00,51.6,41.0,30.12,SW,232,0.0,0.0,67,0.00,,,0.00,Wunderground v.1.15,2013-03-17 09:40:00,
2013-03-17 02:45:00,51.6,41.0,30.12,WSW,250,1.0,2.0,67,0.00,,,0.00,Wunderground v.1.15,2013-03-17 09:45:00,
2013-03-17 02:50:00,51.5,40.9,30.13,WNW,286,1.0,1.0,67,0.00,,,0.00,Wunderground v.1.15,2013-03-17 09:50:00,
2013-03-17 03:00:00,51.0,40.8,30.13,NW,321,0.0,0.0,68,0.00,,,0.00,Wunderground v.1.15,2013-03-17 10:00:00,
2013-03-17 03:05:00,50.5,41.1,30.12,NW,307,1.0,1.0,70,0.00,,,0.00,Wunderground v.1.15,2013-03-17 10:05:00,
2013-03-17 03:10:00,50.2,40.8,30.12,WNW,298,0.0,0.0,70,0.00,,,0.00,Wunderground v.1.15,2013-03-17 10:10:00,
2013-03-17 03:20:00,50.0,41.0,30.12,WNW,297,1.0,1.0,71,0.00,,,0.00,Wunderground v.1.15,2013-03-17 10:20:00,
2013-03-17 03:25:00,49.9,41.2,30.12,NNW,329,1.0,1.0,72,0.00,,,0.00,Wunderground v.1.15,2013-03-17 10:25:00,
2013-03-17 03:35:00,50.0,41.3,30.12,NW,312,1.0,2.0,72,0.00,,,0.00,Wunderground v.1.15,2013-03-17 10:35:00,
2013-03-17 03:40:00,50.0,41.3,30.12,WNW,292,1.0,1.0,72,0.00,,,0.00,Wunderground v.1.15,2013-03-17 10:40:00,
2013-03-17 03:45:00,49.9,41.2,30.12,WNW,296,1.0,1.0,72,0.00,,,0.00,Wunderground v.1.15,2013-03-17 10:45:00,
2013-03-17 03:50:00,49.9,41.2,30.12,WSW,250,2.0,2.0,72,0.00,,,0.00,Wunderground v.1.15,2013-03-17 10:50:00,
2013-03-17 03:55:00,49.9,41.2,30.12,North,351,2.0,2.0,72,0.00,,,0.00,Wunderground v.1.15,2013-03-17 10:55:00,
2013-03-17 04:05:00,49.8,41.1,30.12,WNW,294,1.0,2.0,72,0.00,,,0.00,Wunderground v.1.15,2013-03-17 11:05:00,
2013-03-17 04:10:00,49.6,40.9,30.11,WNW,294,0.0,0.0,72,0.00,,,0.00,Wunderground v.1.15,2013-03-17 11:10:00,
2013-03-17 04:15:00,49.4,41.1,30.11,SW,234,0.0,0.0,73,0.00,,,0.00,Wunderground v.1.15,2013-03-17 11:15:00,
2013-03-17 04:25:00,49.1,41.2,30.10,WNW,290,0.0,4.0,74,0.00,,,0.00,Wunderground v.1.15,2013-03-17 11:25:00,
2013-03-17 04:30:00,48.8,40.9,30.10,WNW,298,0.0,0.0,74,0.00,,,0.00,Wunderground v.1.15,2013-03-17 11:30:00,
2013-03-17 04:35:00,48.6,41.0,30.10,WNW,298,0.0,0.0,75,0.00,,,0.00,Wunderground v.1.15,2013-03-17 11:35:00,
2013-03-17 04:40:00,48.2,40.6,30.10,WNW,298,0.0,0.0,75,0.00,,,0.00,Wunderground v.1.15,2013-03-17 11:40:00,
2013-03-17 04:45:00,47.8,40.9,30.10,WNW,298,0.0,0.0,77,0.00,,,0.00,Wunderground v.1.15,2013-03-17 11:45:00,
2013-03-17 04:50:00,47.4,40.9,30.10,WNW,298,0.0,0.0,78,0.00,,,0.00,Wunderground v.1.15,2013-03-17 11:50:00,
2013-03-17 04:55:00,47.1,40.9,30.10,NW,321,0.0,0.0,79,0.00,,,0.00,Wunderground v.1.15,2013-03-17 11:55:00,
2013-03-17 05:05:00,47.2,41.0,30.11,NW,321,0.0,0.0,79,0.00,,,0.00,Wunderground v.1.15,2013-03-17 12:05:00,
2013-03-17 05:10:00,46.9,40.7,30.11,NW,321,0.0,0.0,79,0.00,,,0.00,Wunderground v.1.15,2013-03-17 12:10:00,
2013-03-17 05:15:00,46.7,40.5,30.11,NW,321,0.0,0.0,79,0.00,,,0.00,Wunderground v.1.15,2013-03-17 12:15:00,
2013-03-17 05:20:00,46.6,40.8,30.11,NW,321,0.0,0.0,80,0.00,,,0.00,Wunderground v.1.15,2013-03-17 12:20:00,
2013-03-17 05:30:00,46.3,40.5,30.11,NW,321,0.0,0.0,80,0.00,,,0.00,Wunderground v.1.15,2013-03-17 12:30:00,
2013-03-17 05:35:00,46.1,40.6,30.11,NW,321,0.0,0.0,81,0.00,,,0.00,Wunderground v.1.15,2013-03-17 12:35:00,
2013-03-17 05:40:00,45.8,40.3,30.11,NW,321,0.0,0.0,81,0.00,,,0.00,Wunderground v.1.15,2013-03-17 12:40:00,
2013-03-17 05:45:00,45.7,40.5,30.11,NW,321,0.0,0.0,82,0.00,,,0.00,Wunderground v.1.15,2013-03-17 12:45:00,
2013-03-17 05:55:00,45.4,40.2,30.11,NW,321,0.0,0.0,82,0.00,,,0.00,Wunderground v.1.15,2013-03-17 12:55:00,
2013-03-17 06:00:00,45.3,40.1,30.11,NW,321,0.0,0.0,82,0.00,,,0.00,Wunderground v.1.15,2013-03-17 13:00:00,
2013-03-17 06:05:00,45.1,40.2,30.11,NW,321,0.0,0.0,83,0.00,,,0.00,Wunderground v.1.15,2013-03-17 13:05:00,
2013-03-17 06:10:00,45.0,40.5,30.11,NW,321,0.0,0.0,84,0.00,,,0.00,Wunderground v.1.15,2013-03-17 13:10:00,
2013-03-17 06:15:00,44.9,40.4,30.11,NW,321,0.0,0.0,84,0.00,,,0.00,Wunderground v.1.15,2013-03-17 13:15:00,
2013-03-17 06:25:00,44.7,40.5,30.12,NW,321,0.0,0.0,85,0.00,,,0.00,Wunderground v.1.15,2013-03-17 13:25:00,
2013-03-17 06:30:00,44.7,40.5,30.12,NW,321,0.0,0.0,85,0.00,,,0.00,Wunderground v.1.15,2013-03-17 13:30:00,
2013-03-17 06:35:00,44.6,40.4,30.12,NW,321,0.0,0.0,85,0.00,,,0.00,Wunderground v.1.15,2013-03-17 13:35:00,
2013-03-17 06:40:00,44.5,40.6,30.12,NW,311,0.0,1.0,86,0.00,,,0.00,Wunderground v.1.15,2013-03-17 13:40:00,
2013-03-17 06:50:00,44.7,40.8,30.13,WNW,285,0.0,0.0,86,0.00,,,0.00,Wunderground v.1.15,2013-03-17 13:50:00,
2013-03-17 06:55:00,44.6,40.7,30.13,WNW,285,0.0,0.0,86,0.00,,,0.00,Wunderground v.1.15,2013-03-17 13:55:00,
2013-03-17 07:00:00,44.4,40.5,30.13,WNW,285,0.0,0.0,86,0.00,,,0.00,Wunderground v.1.15,2013-03-17 14:00:00,
2013-03-17 07:10:00,44.1,40.2,30.13,NW,321,0.0,0.0,86,0.00,,,0.00,Wunderground v.1.15,2013-03-17 14:10:00,
2013-03-17 07:15:00,44.1,40.2,30.13,WNW,294,0.0,0.0,86,0.00,,,0.00,Wunderground v.1.15,2013-03-17 14:15:00,
2013-03-17 07:20:00,44.2,40.3,30.14,WNW,294,0.0,0.0,86,0.00,,,0.00,Wunderground v.1.15,2013-03-17 14:20:00,
2013-03-17 07:30:00,44.6,40.4,30.14,WNW,291,0.0,0.0,85,0.00,,,0.00,Wunderground v.1.15,2013-03-17 14:30:00,
2013-03-17 07:40:00,44.8,40.6,30.14,West,270,0.0,0.0,85,0.00,,,0.00,Wunderground v.1.15,2013-03-17 14:40:00,
2013-03-17 07:45:00,44.8,40.3,30.15,West,270,0.0,0.0,84,0.00,,,0.00,Wunderground v.1.15,2013-03-17 14:45:00,
2013-03-17 07:50:00,44.7,40.2,30.15,West,270,0.0,0.0,84,0.00,,,0.00,Wunderground v.1.15,2013-03-17 14:50:00,
2013-03-17 07:55:00,44.8,40.6,30.15,West,270,0.0,0.0,85,0.00,,,0.00,Wunderground v.1.15,2013-03-17 14:55:00,
2013-03-17 08:00:00,44.8,40.6,30.15,West,270,0.0,0.0,85,0.00,,,0.00,Wunderground v.1.15,2013-03-17 15:00:00,
2013-03-17 08:10:00,45.4,41.2,30.15,West,270,0.0,0.0,85,0.00,,,0.00,Wunderground v.1.15,2013-03-17 15:10:00,
2013-03-17 08:15:00,46.1,41.5,30.15,SSW,209,0.0,1.0,84,0.00,,,0.00,Wunderground v.1.15,2013-03-17 15:15:00,
2013-03-17 08:20:00,46.8,41.9,30.15,SSE,153,0.0,0.0,83,0.00,,,0.00,Wunderground v.1.15,2013-03-17 15:20:00,
2013-03-17 08:30:00,47.9,41.7,30.15,East,100,0.0,0.0,79,0.00,,,0.00,Wunderground v.1.15,2013-03-17 15:30:00,
2013-03-17 08:35:00,48.4,41.9,30.15,East,100,0.0,0.0,78,0.00,,,0.00,Wunderground v.1.15,2013-03-17 15:35:00,
2013-03-17 08:40:00,49.0,41.4,30.15,East,100,0.0,0.0,75,0.00,,,0.00,Wunderground v.1.15,2013-03-17 15:40:00,
2013-03-17 08:50:00,49.3,41.4,30.15,WNW,292,1.0,2.0,74,0.00,,,0.00,Wunderground v.1.15,2013-03-17 15:50:00,
2013-03-17 08:55:00,49.3,41.4,30.15,WNW,298,1.0,2.0,74,0.00,,,0.00,Wunderground v.1.15,2013-03-17 15:55:00,
2013-03-17 09:05:00,50.1,41.4,30.15,WSW,252,0.0,3.0,72,0.00,,,0.00,Wunderground v.1.15,2013-03-17 16:05:00,
2013-03-17 09:10:00,50.4,41.3,30.15,SW,222,1.0,1.0,71,0.00,,,0.00,Wunderground v.1.15,2013-03-17 16:10:00,
2013-03-17 09:15:00,50.7,40.9,30.15,West,271,1.0,1.0,69,0.00,,,0.00,Wunderground v.1.15,2013-03-17 16:15:00,
2013-03-17 09:25:00,50.2,40.4,30.15,NW,308,2.0,2.0,69,0.00,,,0.00,Wunderground v.1.15,2013-03-17 16:25:00,
2013-03-17 09:30:00,50.2,40.4,30.16,West,261,2.0,2.0,69,0.00,,,0.00,Wunderground v.1.15,2013-03-17 16:30:00,
2013-03-17 09:35:00,50.7,40.9,30.16,West,260,1.0,2.0,69,0.00,,,0.00,Wunderground v.1.15,2013-03-17 16:35:00,
2013-03-17 09:45:00,52.0,41.8,30.16,West,263,1.0,1.0,68,0.00,,,0.00,Wunderground v.1.15,2013-03-17 16:45:00,
2013-03-17 09:50:00,52.4,41.0,30.16,WSW,257,1.0,1.0,65,0.00,,,0.00,Wunderground v.1.15,2013-03-17 16:50:00,
2013-03-17 09:55:00,52.3,40.1,30.16,NW,319,2.0,2.0,63,0.00,,,0.00,Wunderground v.1.15,2013-03-17 16:55:00,
2013-03-17 10:00:00,52.3,40.5,30.16,WNW,291,2.0,2.0,64,0.00,,,0.00,Wunderground v.1.15,2013-03-17 17:00:00,
2013-03-17 10:10:00,52.3,40.5,30.16,SSW,211,2.0,2.0,64,0.00,,,0.00,Wunderground v.1.15,2013-03-17 17:10:00,
2013-03-17 10:15:00,52.6,40.8,30.16,WSW,251,2.0,2.0,64,0.00,,,0.00,Wunderground v.1.15,2013-03-17 17:15:00,
2013-03-17 10:20:00,52.7,40.9,30.17,WNW,294,2.0,2.0,64,0.00,,,0.00,Wunderground v.1.15,2013-03-17 17:20:00,
2013-03-17 10:30:00,53.6,41.3,30.17,WSW,252,1.0,1.0,63,0.00,,,0.00,Wunderground v.1.15,2013-03-17 17:30:00,
2013-03-17 10:35:00,53.9,41.2,30.17,West,264,1.0,2.0,62,0.00,,,0.00,Wunderground v.1.15,2013-03-17 17:35:00,
2013-03-17 10:40:00,53.9,41.2,30.17,North,355,2.0,2.0,62,0.00,,,0.00,Wunderground v.1.15,2013-03-17 17:40:00,
2013-03-17 10:45:00,54.4,42.1,30.17,West,265,2.0,2.0,63,0.00,,,0.00,Wunderground v.1.15,2013-03-17 17:45:00,
2013-03-17 10:55:00,55.3,41.6,30.17,WSW,241,1.0,2.0,60,0.00,,,0.00,Wunderground v.1.15,2013-03-17 17:55:00,
2013-03-17 11:00:00,54.8,40.7,30.17,NNW,333,2.0,4.0,59,0.00,,,0.00,Wunderground v.1.15,2013-03-17 18:00:00,
2013-03-17 11:05:00,55.0,41.8,30.16,WSW,257,2.0,4.0,61,0.00,,,0.00,Wunderground v.1.15,2013-03-17 18:05:00,
2013-03-17 11:15:00,56.5,41.9,30.16,NW,309,1.0,3.0,58,0.00,,,0.00,Wunderground v.1.15,2013-03-17 18:15:00,
2013-03-17 11:20:00,56.7,42.5,30.16,NW,319,1.0,1.0,59,0.00,,,0.00,Wunderground v.1.15,2013-03-17 18:20:00,
2013-03-17 11:25:00,56.4,41.8,30.16,West,275,2.0,2.0,58,0.00,,,0.00,Wunderground v.1.15,2013-03-17 18:25:00,
2013-03-17 11:35:00,57.2,42.1,30.16,WNW,297,1.0,4.0,57,0.00,,,0.00,Wunderground v.1.15,2013-03-17 18:35:00,
2013-03-17 11:40:00,56.8,41.7,30.16,WNW,288,2.0,2.0,57,0.00,,,0.00,Wunderground v.1.15,2013-03-17 18:40:00,
2013-03-17 11:45:00,57.2,41.2,30.16,West,267,1.0,2.0,55,0.00,,,0.00,Wunderground v.1.15,2013-03-17 18:45:00,
2013-03-17 11:50:00,57.8,41.7,30.15,WSW,253,1.0,1.0,55,0.00,,,0.00,Wunderground v.1.15,2013-03-17 18:50:00,
2013-03-17 11:55:00,58.7,42.1,30.15,ESE,109,1.0,1.0,54,0.00,,,0.00,Wunderground v.1.15,2013-03-17 18:55:00,
2013-03-17 12:05:00,60.3,42.6,30.15,ESE,108,1.0,4.0,52,0.00,,,0.00,Wunderground v.1.15,2013-03-17 19:05:00,
2013-03-17 12:10:00,59.8,42.6,30.14,ESE,119,2.0,2.0,53,0.00,,,0.00,Wunderground v.1.15,2013-03-17 19:10:00,
2013-03-17 12:15:00,60.4,43.7,30.14,SW,220,2.0,2.0,54,0.00,,,0.00,Wunderground v.1.15,2013-03-17 19:15:00,
2013-03-17 12:25:00,61.5,42.2,30.14,WSW,253,1.0,1.0,49,0.00,,,0.00,Wunderground v.1.15,2013-03-17 19:25:00,
2013-03-17 12:30:00,62.3,42.9,30.14,WSW,243,0.0,3.0,49,0.00,,,0.00,Wunderground v.1.15,2013-03-17 19:30:00,
2013-03-17 12:35:00,62.3,42.3,30.13,NW,321,1.0,3.0,48,0.00,,,0.00,Wunderground v.1.15,2013-03-17 19:35:00,
2013-03-17 12:40:00,62.2,42.3,30.13,NNW,338,1.0,2.0,48,0.00,,,0.00,Wunderground v.1.15,2013-03-17 19:40:00,
2013-03-17 12:50:00,62.1,42.2,30.13,SSW,200,1.0,1.0,48,0.00,,,0.00,Wunderground v.1.15,2013-03-17 19:50:00,
2013-03-17 12:55:00,62.2,41.2,30.13,SE,142,2.0,4.0,46,0.00,,,0.00,Wunderground v.1.15,2013-03-17 19:55:00,
2013-03-17 13:00:00,62.1,42.2,30.13,ESE,120,3.0,3.0,48,0.00,,,0.00,Wunderground v.1.15,2013-03-17 20:00:00,
2013-03-17 13:05:00,62.1,41.1,30.13,SSE,163,3.0,3.0,46,0.00,,,0.00,Wunderground v.1.15,2013-03-17 20:05:00,
2013-03-17 13:15:00,62.6,42.1,30.13,East,95,1.0,2.0,47,0.00,,,0.00,Wunderground v.1.15,2013-03-17 20:15:00,
2013-03-17 13:20:00,62.8,42.8,30.13,SE,134,1.0,1.0,48,0.00,,,0.00,Wunderground v.1.15,2013-03-17 20:20:00,
2013-03-17 13:25:00,64.3,42.5,30.12,SE,140,1.0,1.0,45,0.00,,,0.00,Wunderground v.1.15,2013-03-17 20:25:00,
2013-03-17 13:30:00,64.6,42.2,30.12,WNW,291,1.0,1.0,44,0.00,,,0.00,Wunderground v.1.15,2013-03-17 20:30:00,
2013-03-17 13:40:00,64.9,41.9,30.12,SSE,153,2.0,2.0,43,0.00,,,0.00,Wunderground v.1.15,2013-03-17 20:40:00,
2013-03-17 13:45:00,65.1,40.8,30.12,ESE,120,2.0,2.0,41,0.00,,,0.00,Wunderground v.1.15,2013-03-17 20:45:00,
2013-03-17 13:50:00,65.0,41.9,30.11,ESE,121,1.0,2.0,43,0.00,,,0.00,Wunderground v.1.15,2013-03-17 20:50:00,
2013-03-17 13:55:00,65.3,41.0,30.11,ESE,121,1.0,4.0,41,0.00,,,0.00,Wunderground v.1.15,2013-03-17 20:55:00,
2013-03-17 14:05:00,65.8,41.4,30.11,SE,131,1.0,3.0,41,0.00,,,0.00,Wunderground v.1.15,2013-03-17 21:05:00,
2013-03-17 14:10:00,66.2,41.8,30.10,SE,136,1.0,1.0,41,0.00,,,0.00,Wunderground v.1.15,2013-03-17 21:10:00,
2013-03-17 14:15:00,66.5,41.4,30.10,ESE,115,2.0,2.0,40,0.00,,,0.00,Wunderground v.1.15,2013-03-17 21:15:00,
2013-03-17 14:25:00,66.7,40.9,30.09,WNW,293,1.0,2.0,39,0.00,,,0.00,Wunderground v.1.15,2013-03-17 21:25:00,
2013-03-17 14:30:00,67.4,41.6,30.09,SSE,155,1.0,1.0,39,0.00,,,0.00,Wunderground v.1.15,2013-03-17 21:30:00,
2013-03-17 14:35:00,67.0,39.9,30.09,ESE,109,1.0,1.0,37,0.00,,,0.00,Wunderground v.1.15,2013-03-17 21:35:00,
2013-03-17 14:40:00,66.6,37.3,30.09,SE,135,1.0,1.0,34,0.00,,,0.00,Wunderground v.1.15,2013-03-17 21:40:00,
2013-03-17 14:45:00,67.0,39.1,30.09,SE,132,1.0,1.0,36,0.00,,,0.00,Wunderground v.1.15,2013-03-17 21:45:00,
2013-03-17 14:50:00,67.1,42.0,30.08,South,184,1.0,1.0,40,0.00,,,0.00,Wunderground v.1.15,2013-03-17 21:50:00,
2013-03-17 15:00:00,67.2,43.9,30.08,SSE,150,1.0,2.0,43,0.00,,,0.00,Wunderground v.1.15,2013-03-17 22:00:00,
2013-03-17 15:05:00,67.5,43.6,30.08,ESE,107,2.0,2.0,42,0.00,,,0.00,Wunderground v.1.15,2013-03-17 22:05:00,
2013-03-17 15:10:00,67.2,43.3,30.08,SE,129,2.0,3.0,42,0.00,,,0.00,Wunderground v.1.15,2013-03-17 22:10:00,
2013-03-17 15:15:00,67.1,42.6,30.07,NW,313,2.0,4.0,41,0.00,,,0.00,Wunderground v.1.15,2013-03-17 22:15:00,
2013-03-17 15:25:00,68.1,44.1,30.07,West,275,2.0,2.0,42,0.00,,,0.00,Wunderground v.1.15,2013-03-17 22:25:00,
2013-03-17 15:30:00,68.6,44.6,30.07,West,269,2.0,2.0,42,0.00,,,0.00,Wunderground v.1.15,2013-03-17 22:30:00,
2013-03-17 15:35:00,68.6,44.6,30.07,WSW,257,2.0,7.0,42,0.00,,,0.00,Wunderground v.1.15,2013-03-17 22:35:00,
2013-03-17 15:40:00,67.8,45.1,30.07,SE,145,2.0,2.0,44,0.00,,,0.00,Wunderground v.1.15,2013-03-17 22:40:00,
2013-03-17 15:45:00,67.4,44.7,30.07,WSW,256,2.0,2.0,44,0.00,,,0.00,Wunderground v.1.15,2013-03-17 22:45:00,
2013-03-17 15:55:00,67.7,45.0,30.07,West,259,2.0,4.0,44,0.00,,,0.00,Wunderground v.1.15,2013-03-17 22:55:00,
2013-03-17 16:00:00,67.2,45.1,30.07,WNW,283,3.0,3.0,45,0.00,,,0.00,Wunderground v.1.15,2013-03-17 23:00:00,
2013-03-17 16:05:00,66.2,44.8,30.06,NNW,342,3.0,3.0,46,0.00,,,0.00,Wunderground v.1.15,2013-03-17 23:05:00,
2013-03-17 16:15:00,67.0,44.9,30.07,NW,323,1.0,2.0,45,0.00,,,0.00,Wunderground v.1.15,2013-03-17 23:15:00,
2013-03-17 16:20:00,66.6,44.6,30.07,NW,306,2.0,2.0,45,0.00,,,0.00,Wunderground v.1.15,2013-03-17 23:20:00,
2013-03-17 16:30:00,67.0,44.4,30.07,WNW,290,2.0,7.0,44,0.00,,,0.00,Wunderground v.1.15,2013-03-17 23:30:00,
2013-03-17 16:35:00,65.8,44.4,30.07,WNW,302,3.0,7.0,46,0.00,,,0.00,Wunderground v.1.15,2013-03-17 23:35:00,
2013-03-17 16:40:00,65.6,44.3,30.07,South,182,3.0,3.0,46,0.00,,,0.00,Wunderground v.1.15,2013-03-17 23:40:00,
2013-03-17 16:50:00,66.0,44.0,30.08,NNE,26,2.0,2.0,45,0.00,,,0.00,Wunderground v.1.15,2013-03-17 23:50:00,
2013-03-17 16:55:00,65.8,43.3,30.08,NW,320,2.0,2.0,44,0.00,,,0.00,Wunderground v.1.15,2013-03-17 23:55:00,
2013-03-17 17:05:00,64.8,42.4,30.08,WNW,284,2.0,5.0,44,0.00,,,0.00,Wunderground v.1.15,2013-03-18 00:05:00,
2013-03-17 17:10:00,63.6,41.3,30.08,West,266,3.0,3.0,44,0.00,,,0.00,Wunderground v.1.15,2013-03-18 00:10:00,
2013-03-17 17:20:00,62.9,41.2,30.08,WSW,240,2.0,2.0,45,0.00,,,0.00,Wunderground v.1.15,2013-03-18 00:20:00,
2013-03-17 17:25:00,63.1,40.8,30.08,SW,236,1.0,3.0,44,0.00,,,0.00,Wunderground v.1.15,2013-03-18 00:25:00,
2013-03-17 17:30:00,62.5,39.7,30.07,West,277,2.0,5.0,43,0.00,,,0.00,Wunderground v.1.15,2013-03-18 00:30:00,
2013-03-17 17:40:00,62.0,40.4,30.08,WNW,288,2.0,2.0,45,0.00,,,0.00,Wunderground v.1.15,2013-03-18 00:40:00,
2013-03-17 17:45:00,62.1,40.5,30.08,ENE,69,1.0,2.0,45,0.00,,,0.00,Wunderground v.1.15,2013-03-18 00:45:00,
2013-03-17 17:50:00,62.1,40.5,30.08,WNW,288,1.0,1.0,45,0.00,,,0.00,Wunderground v.1.15,2013-03-18 00:50:00,
2013-03-17 17:55:00,61.8,40.2,30.08,WSW,258,1.0,1.0,45,0.00,,,0.00,Wunderground v.1.15,2013-03-18 00:55:00,
2013-03-17 18:05:00,61.4,40.4,30.07,North,5,0.0,0.0,46,0.00,,,0.00,Wunderground v.1.15,2013-03-18 01:05:00,
2013-03-17 18:10:00,61.1,40.7,30.07,WNW,296,0.0,0.0,47,0.00,,,0.00,Wunderground v.1.15,2013-03-18 01:10:00,
2013-03-17 18:15:00,60.8,41.5,30.07,WNW,296,0.0,0.0,49,0.00,,,0.00,Wunderground v.1.15,2013-03-18 01:15:00,
2013-03-17 18:20:00,60.6,41.8,30.07,WNW,296,0.0,0.0,50,0.00,,,0.00,Wunderground v.1.15,2013-03-18 01:20:00,
2013-03-17 18:30:00,59.8,41.6,30.07,WNW,296,0.0,0.0,51,0.00,,,0.00,Wunderground v.1.15,2013-03-18 01:30:00,
2013-03-17 18:40:00,59.2,42.1,30.07,WNW,296,0.0,0.0,53,0.00,,,0.00,Wunderground v.1.15,2013-03-18 01:40:00,
2013-03-17 18:45:00,58.8,41.2,30.07,WNW,296,0.0,0.0,52,0.00,,,0.00,Wunderground v.1.15,2013-03-18 01:45:00,
2013-03-17 18:50:00,58.4,41.8,30.07,WNW,296,0.0,0.0,54,0.00,,,0.00,Wunderground v.1.15,2013-03-18 01:50:00,
2013-03-17 18:55:00,58.0,41.4,30.07,WNW,296,0.0,0.0,54,0.00,,,0.00,Wunderground v.1.15,2013-03-18 01:55:00,
2013-03-17 19:05:00,57.3,42.2,30.07,WNW,296,0.0,0.0,57,0.00,,,0.00,Wunderground v.1.15,2013-03-18 02:05:00,
2013-03-17 19:10:00,57.0,42.4,30.07,WNW,296,0.0,0.0,58,0.00,,,0.00,Wunderground v.1.15,2013-03-18 02:10:00,
2013-03-17 19:20:00,56.5,42.8,30.07,WNW,296,0.0,0.0,60,0.00,,,0.00,Wunderground v.1.15,2013-03-18 02:20:00,
2013-03-17 19:25:00,56.2,42.9,30.07,West,259,0.0,0.0,61,0.00,,,0.00,Wunderground v.1.15,2013-03-18 02:25:00,
2013-03-17 19:35:00,55.2,42.8,30.06,NNW,327,0.0,2.0,63,0.00,,,0.00,Wunderground v.1.15,2013-03-18 02:35:00,
2013-03-17 19:40:00,54.9,42.9,30.06,NNW,327,0.0,0.0,64,0.00,,,0.00,Wunderground v.1.15,2013-03-18 02:40:00,
2013-03-17 19:45:00,54.6,43.1,30.06,NNW,327,0.0,0.0,65,0.00,,,0.00,Wunderground v.1.15,2013-03-18 02:45:00,
2013-03-17 19:55:00,54.2,43.1,30.06,NNW,327,0.0,1.0,66,0.00,,,0.00,Wunderground v.1.15,2013-03-18 02:55:00,
2013-03-17 20:00:00,54.1,43.0,30.07,NNW,327,0.0,0.0,66,0.00,,,0.00,Wunderground v.1.15,2013-03-18 03:00:00,
2013-03-17 20:05:00,54.0,43.3,30.07,NNW,327,0.0,0.0,67,0.00,,,0.00,Wunderground v.1.15,2013-03-18 03:05:00,
2013-03-17 20:15:00,53.7,43.4,30.07,NNW,327,0.0,0.0,68,0.00,,,0.00,Wunderground v.1.15,2013-03-18 03:15:00,
2013-03-17 20:25:00,53.3,43.4,30.07,NNW,327,0.0,0.0,69,0.00,,,0.00,Wunderground v.1.15,2013-03-18 03:25:00,
2013-03-17 20:30:00,53.2,43.7,30.07,NNW,327,0.0,0.0,70,0.00,,,0.00,Wunderground v.1.15,2013-03-18 03:30:00,
2013-03-17 20:40:00,53.0,43.5,30.07,NNW,338,0.0,0.0,70,0.00,,,0.00,Wunderground v.1.15,2013-03-18 03:40:00,
2013-03-17 20:45:00,52.8,43.7,30.07,NNW,338,0.0,0.0,71,0.00,,,0.00,Wunderground v.1.15,2013-03-18 03:45:00,
2013-03-17 20:50:00,52.7,43.6,30.07,NNW,338,0.0,0.0,71,0.00,,,0.00,Wunderground v.1.15,2013-03-18 03:50:00,
2013-03-17 21:00:00,52.2,43.4,30.07,NNW,338,0.0,0.0,72,0.00,,,0.00,Wunderground v.1.15,2013-03-18 04:00:00,
2013-03-17 21:05:00,52.0,43.3,30.07,NNW,338,0.0,0.0,72,0.00,,,0.00,Wunderground v.1.15,2013-03-18 04:05:00,
2013-03-17 21:10:00,51.8,43.4,30.08,NNW,338,0.0,0.0,73,0.00,,,0.00,Wunderground v.1.15,2013-03-18 04:10:00,
2013-03-17 21:15:00,51.7,43.3,30.08,NNW,338,0.0,0.0,73,0.00,,,0.00,Wunderground v.1.15,2013-03-18 04:15:00,
2013-03-17 21:20:00,51.5,43.1,30.08,NNW,338,0.0,0.0,73,0.00,,,0.00,Wunderground v.1.15,2013-03-18 04:20:00,
2013-03-17 21:25:00,51.4,43.0,30.08,NNW,338,0.0,0.0,73,0.00,,,0.00,Wunderground v.1.15,2013-03-18 04:25:00,
2013-03-17 21:30:00,51.4,43.0,30.08,NNW,338,0.0,0.0,73,0.00,,,0.00,Wunderground v.1.15,2013-03-18 04:30:00,
2013-03-17 21:35:00,51.3,43.3,30.08,NNW,338,0.0,0.0,74,0.00,,,0.00,Wunderground v.1.15,2013-03-18 04:35:00,
2013-03-17 21:45:00,51.0,43.0,30.09,NNW,338,0.0,0.0,74,0.00,,,0.00,Wunderground v.1.15,2013-03-18 04:45:00,
2013-03-17 21:50:00,50.8,43.2,30.09,NNW,338,0.0,0.0,75,0.00,,,0.00,Wunderground v.1.15,2013-03-18 04:50:00,
2013-03-17 22:00:00,50.5,43.2,30.09,NNW,338,0.0,0.0,76,0.00,,,0.00,Wunderground v.1.15,2013-03-18 05:00:00,
2013-03-17 22:05:00,50.3,43.0,30.09,NNW,338,0.0,0.0,76,0.00,,,0.00,Wunderground v.1.15,2013-03-18 05:05:00,
2013-03-17 22:10:00,50.1,42.8,30.09,NNW,338,0.0,0.0,76,0.00,,,0.00,Wunderground v.1.15,2013-03-18 05:10:00,
2013-03-17 22:15:00,49.8,42.5,30.09,NNW,338,0.0,0.0,76,0.00,,,0.00,Wunderground v.1.15,2013-03-18 05:15:00,
2013-03-17 22:20:00,49.6,42.7,30.09,NNW,338,0.0,1.0,77,0.00,,,0.00,Wunderground v.1.15,2013-03-18 05:20:00,
2013-03-17 22:30:00,49.4,42.5,30.09,NNW,338,0.0,0.0,77,0.00,,,0.00,Wunderground v.1.15,2013-03-18 05:30:00,
2013-03-17 22:35:00,49.1,42.2,30.09,NNW,338,0.0,0.0,77,0.00,,,0.00,Wunderground v.1.15,2013-03-18 05:35:00,
2013-03-17 22:40:00,48.8,42.2,30.10,NNW,338,0.0,0.0,78,0.00,,,0.00,Wunderground v.1.15,2013-03-18 05:40:00,
2013-03-17 22:50:00,48.3,42.1,30.10,NNW,338,0.0,0.0,79,0.00,,,0.00,Wunderground v.1.15,2013-03-18 05:50:00,
2013-03-17 22:55:00,48.0,41.8,30.10,NNW,338,0.0,0.0,79,0.00,,,0.00,Wunderground v.1.15,2013-03-18 05:55:00,
2013-03-17 23:00:00,47.9,41.7,30.09,NNW,338,0.0,0.0,79,0.00,,,0.00,Wunderground v.1.15,2013-03-18 06:00:00,
2013-03-17 23:10:00,47.7,41.8,30.09,NNW,338,0.0,0.0,80,0.00,,,0.00,Wunderground v.1.15,2013-03-18 06:10:00,
2013-03-17 23:15:00,47.5,41.6,30.09,NNW,338,0.0,0.0,80,0.00,,,0.00,Wunderground v.1.15,2013-03-18 06:15:00,
2013-03-17 23:25:00,47.2,41.7,30.09,NNW,338,0.0,0.0,81,0.00,,,0.00,Wunderground v.1.15,2013-03-18 06:25:00,
2013-03-17 23:30:00,47.0,41.8,30.09,NNW,338,0.0,0.0,82,0.00,,,0.00,Wunderground v.1.15,2013-03-18 06:30:00,
2013-03-17 23:35:00,47.0,41.8,30.09,NNW,338,0.0,0.0,82,0.00,,,0.00,Wunderground v.1.15,2013-03-18 06:35:00,
2013-03-17 23:45:00,47.2,42.0,30.09,NNW,338,0.0,0.0,82,0.00,,,0.00,Wunderground v.1.15,2013-03-18 06:45:00,
2013-03-17 23:50:00,47.3,41.8,30.09,NNW,338,0.0,0.0,81,0.00,,,0.00,Wunderground v.1.15,2013-03-18 06:50:00,
2013-03-17 23:55:00,47.2,41.7,30.09,NNW,338,0.0,0.0,81,0.00,,,0.00,Wunderground v.1.15,2013-03-18 06:55:00,